Tracking 28790 objects as of 19-Apr-2024
HD Live streaming from Space Station
objects crossing your sky now

FENGYUN 1C DEB

Track FENGYUN 1C DEB now!
10-day predictions


NORAD ID: 30164
Int'l Code: 1999-025TV
Perigee: 652.2 km
Apogee: 1,063.4 km
Inclination: 99.6 °
Period: 101.9 minutes
Semi major axis: 7228 km
RCS: 0.0546 m2 (small)
Launch date: May 10, 1999
Source: People's Republic of China (PRC)
Launch site: Taiyaun Space Center, China (TSC)

Note: This is SATELLITE DEBRIS
Your satellite tracking list
Your tracking list is empty




NASA's NSSDC Master Catalog

Two Line Element Set (TLE):
1 30164U 99025TV  24110.55390828  .00104312  00000-0  37934-1 0  9995
2 30164  99.5769 331.2391 0284431 352.3380   7.3489 14.12550218853566
Source of the keplerian elements: AFSPC